"Sample Date","Sample Time","Sample Value","Units","Flow Rate","Sample Interval","Number Channels","Micron Size 0","Counts/Channel 0","Micron Size 1","Counts/Channel 1","Micron Size 2","Counts/Channel 2","Micron Size 3","Counts/Channel 3","Micron Size 4","Counts/Channel 4","Micron Size 5","Counts/Channel 5","Micron Size 6","Counts/Channel 6","Micron Size 7","Counts/Channel 7","Micron Size 8","Counts/Channel 8","Micron Size 9","Counts/Channel 9","Micron Size 10","Counts/Channel 10","Micron Size 11","Counts/Channel 11","Micron Size 12","Counts/Channel 12","Micron Size 13","Counts/Channel 13","Micron Size 14","Counts/Channel 14","Micron Size 15","Counts/Channel 15","Micron Size 16","Counts/Channel 16","Micron Size 17","Counts/Channel 17","Micron Size 18","Counts/Channel 18","Micron Size 19","Counts/Channel 19","Micron Size 20","Counts/Channel 20","Micron Size 21","Counts/Channel 21","Micron Size 22","Counts/Channel 22","Micron Size 23","Counts/Channel 23","Micron Size 24","Counts/Channel 24","Micron Size 25","Counts/Channel 25","Micron Size 26","Counts/Channel 26","Micron Size 27","Counts/Channel 27","Micron Size 28","Counts/Channel 28","Micron Size 29","Counts/Channel 29","Micron Size 30","Counts/Channel 30","Micron Size 31","Counts/Channel 31"
"04/03/08","07:00:03",21668.000,"cc",28307.877,6.00,6,0.100,17563.000,0.200,1855.000,0.300,1084.000,0.500,932.000,1.000,234.000,5.000,0
"04/03/08","07:00:09",22051.000,"cc",28309.795,6.00,6,0.100,17869.000,0.200,1882.000,0.300,1032.000,0.500,1037.000,1.000,231.000,5.000,0
"04/03/08","07:00:15",21741.000,"cc",28300.010,6.00,6,0.100,17738.000,0.200,1755.000,0.300,984.000,0.500,1029.000,1.000,235.000,5.000,0
"04/03/08","07:00:21",22157.000,"cc",28323.963,6.00,6,0.100,17990.000,0.200,1832.000,0.300,1035.000,0.500,1071.000,1.000,229.000,5.000,0
"04/03/08","07:00:27",22113.000,"cc",28321.221,6.00,6,0.100,18009.000,0.200,1773.000,0.300,1030.000,0.500,1079.000,1.000,222.000,5.000,0
"04/03/08","07:00:33",21508.000,"cc",28425.037,6.00,6,0.100,17578.000,0.200,1753.000,0.300,943.000,0.500,996.000,1.000,238.000,5.000,0
"04/03/08","07:00:39",21342.000,"cc",28388.494,6.00,6,0.100,17349.000,0.200,1780.000,0.300,945.000,0.500,1038.000,1.000,230.000,5.000,0
"04/03/08","07:00:45",21454.000,"cc",28134.535,6.00,6,0.100,17607.000,0.200,1708.000,0.300,983.000,0.500,963.000,1.000,193.000,5.000,0
"04/03/08","07:00:51",21132.000,"cc",28373.281,6.00,6,0.100,17216.000,0.200,1754.000,0.300,1027.000,0.500,902.000,1.000,233.000,5.000,0
"04/03/08","07:00:57",21607.000,"cc",28376.748,6.00,6,0.100,17534.000,0.200,1703.000,0.300,1040.000,0.500,1092.000,1.000,238.000,5.000,0
"04/03/08","07:01:03",21595.000,"cc",28393.041,6.00,6,0.100,17675.000,0.200,1691.000,0.300,991.000,0.500,1011.000,1.000,227.000,5.000,0
"04/03/08","07:01:09",21714.000,"cc",28281.268,6.00,6,0.100,17579.000,0.200,1797.000,0.300,989.000,0.500,1071.000,1.000,278.000,5.000,0
"04/03/08","07:01:15",21962.000,"cc",28236.014,6.00,6,0.100,17724.000,0.200,1765.000,0.300,1081.000,0.500,1137.000,1.000,255.000,5.000,0
"04/03/08","07:01:21",21646.000,"cc",28277.166,6.00,6,0.100,17565.000,0.200,1782.000,0.300,1018.000,0.500,1015.000,1.000,266.000,5.000,0
"04/03/08","07:01:27",21353.000,"cc",28315.184,6.00,6,0.100,17438.000,0.200,1723.000,0.300,971.000,0.500,1001.000,1.000,220.000,5.000,0
"04/03/08","07:01:33",22161.000,"cc",28327.340,6.00,6,0.100,18163.000,0.200,1799.000,0.300,1052.000,0.500,933.000,1.000,214.000,5.000,0
"04/03/08","07:01:39",21697.000,"cc",28310.121,6.00,6,0.100,17684.000,0.200,1764.000,0.300,1056.000,0.500,949.000,1.000,244.000,5.000,0
"04/03/08","07:01:45",21640.000,"cc",28240.815,6.00,6,0.100,17605.000,0.200,1809.000,0.300,1024.000,0.500,981.000,1.000,221.000,5.000,0
"04/03/08","07:01:51",22120.000,"cc",28378.688,6.00,6,0.100,18036.000,0.200,1782.000,0.300,1067.000,0.500,1038.000,1.000,197.000,5.000,0
"04/03/08","07:01:57",21794.000,"cc",28342.965,6.00,6,0.100,17685.000,0.200,1851.000,0.300,1036.000,0.500,1011.000,1.000,211.000,5.000,0
"04/03/08","07:02:03",21982.000,"cc",28262.176,6.00,6,0.100,17845.000,0.200,1814.000,0.300,1028.000,0.500,1046.000,1.000,249.000,5.000,0
"04/03/08","07:02:09",22285.000,"cc",28379.092,6.00,6,0.100,18061.000,0.200,1870.000,0.300,1068.000,0.500,1028.000,1.000,258.000,5.000,0
"04/03/08","07:02:15",21531.000,"cc",28284.775,6.00,6,0.100,17598.000,0.200,1811.000,0.300,966.000,0.500,947.000,1.000,209.000,5.000,0
"04/03/08","07:02:21",21299.000,"cc",28272.166,6.00,6,0.100,17352.000,0.200,1820.000,0.300,997.000,0.500,917.000,1.000,213.000,5.000,0
"04/03/08","07:02:27",21582.000,"cc",28361.723,6.00,6,0.100,17581.000,0.200,1769.000,0.300,963.000,0.500,1036.000,1.000,233.000,5.000,0
"04/03/08","07:02:33",20829.000,"cc",28313.135,6.00,6,0.100,17043.000,0.200,1665.000,0.300,954.000,0.500,961.000,1.000,206.000,5.000,0
"04/03/08","07:02:39",21376.000,"cc",28335.887,6.00,6,0.100,17612.000,0.200,1749.000,0.300,957.000,0.500,874.000,1.000,184.000,5.000,0
"04/03/08","07:02:45",21192.000,"cc",28363.076,6.00,6,0.100,17419.000,0.200,1751.000,0.300,936.000,0.500,893.000,1.000,193.000,5.000,0
"04/03/08","07:02:51",21149.000,"cc",28250.912,6.00,6,0.100,17317.000,0.200,1751.000,0.300,988.000,0.500,908.000,1.000,185.000,5.000,0
"04/03/08","07:02:57",21300.000,"cc",28352.693,6.00,6,0.100,17303.000,0.200,1868.000,0.300,960.000,0.500,962.000,1.000,207.000,5.000,0
"04/03/08","07:03:03",21840.000,"cc",28285.215,6.00,6,0.100,17727.000,0.200,1783.000,0.300,1057.000,0.500,1049.000,1.000,224.000,5.000,0
"04/03/08","07:03:09",21643.000,"cc",28229.941,6.00,6,0.100,17559.000,0.200,1860.000,0.300,1048.000,0.500,941.000,1.000,235.000,5.000,0
"04/03/08","07:03:15",21359.000,"cc",28320.174,6.00,6,0.100,17411.000,0.200,1817.000,0.300,984.000,0.500,949.000,1.000,198.000,5.000,0
"04/03/08","07:03:21",21618.000,"cc",28406.572,6.00,6,0.100,17552.000,0.200,1819.000,0.300,1010.000,0.500,1019.000,1.000,218.000,5.000,0
"04/03/08","07:03:27",21799.000,"cc",28240.004,6.00,6,0.100,17750.000,0.200,1857.000,0.300,1039.000,0.500,950.000,1.000,203.000,5.000,0
"04/03/08","07:03:33",21094.000,"cc",28273.104,6.00,6,0.100,17320.000,0.200,1759.000,0.300,961.000,0.500,884.000,1.000,170.000,5.000,0
"04/03/08","07:03:39",20835.000,"cc",28253.236,6.00,6,0.100,17081.000,0.200,1715.000,0.300,936.000,0.500,905.000,1.000,198.000,5.000,0
"04/03/08","07:03:45",21416.000,"cc",28333.711,6.00,6,0.100,17498.000,0.200,1815.000,0.300,1009.000,0.500,901.000,1.000,193.000,5.000,0
"04/03/08","07:03:51",21450.000,"cc",28393.207,6.00,6,0.100,17511.000,0.200,1844.000,0.300,1009.000,0.500,927.000,1.000,159.000,5.000,0
"04/03/08","07:03:57",20521.000,"cc",28353.318,6.00,6,0.100,16945.000,0.200,1653.000,0.300,899.000,0.500,845.000,1.000,179.000,5.000,0
"04/03/08","07:04:03",20744.000,"cc",28285.857,6.00,6,0.100,17038.000,0.200,1732.000,0.300,911.000,0.500,892.000,1.000,171.000,5.000,0
"04/03/08","07:04:09",20988.000,"cc",28273.305,6.00,6,0.100,17153.000,0.200,1786.000,0.300,991.000,0.500,882.000,1.000,176.000,5.000,0
"04/03/08","07:04:15",20908.000,"cc",28244.606,6.00,6,0.100,17147.000,0.200,1806.000,0.300,942.000,0.500,829.000,1.000,184.000,5.000,0
"04/03/08","07:04:21",21535.000,"cc",28354.252,6.00,6,0.100,17504.000,0.200,1873.000,0.300,1039.000,0.500,924.000,1.000,195.000,5.000,0
"04/03/08","07:04:27",21220.000,"cc",28319.881,6.00,6,0.100,17265.000,0.200,1845.000,0.300,1001.000,0.500,928.000,1.000,181.000,5.000,0
"04/03/08","07:04:33",21757.000,"cc",28271.977,6.00,6,0.100,17752.000,0.200,1885.000,0.300,1042.000,0.500,904.000,1.000,174.000,5.000,0
"04/03/08","07:04:39",21518.000,"cc",28419.061,6.00,6,0.100,17571.000,0.200,1814.000,0.300,992.000,0.500,958.000,1.000,183.000,5.000,0
"04/03/08","07:04:45",20982.000,"cc",28276.637,6.00,6,0.100,17213.000,0.200,1762.000,0.300,916.000,0.500,910.000,1.000,181.000,5.000,0
"04/03/08","07:04:51",21419.000,"cc",28305.322,6.00,6,0.100,17523.000,0.200,1809.000,0.300,1000.000,0.500,928.000,1.000,159.000,5.000,0
"04/03/08","07:04:57",21282.000,"cc",28351.148,6.00,6,0.100,17521.000,0.200,1721.000,0.300,1004.000,0.500,868.000,1.000,168.000,5.000,0
"04/03/08","07:05:03",21376.000,"cc",28326.250,6.00,6,0.100,17409.000,0.200,1842.000,0.300,1033.000,0.500,923.000,1.000,169.000,5.000,0
"04/03/08","07:05:09",21035.000,"cc",28305.076,6.00,6,0.100,17243.000,0.200,1745.000,0.300,955.000,0.500,901.000,1.000,191.000,5.000,0
"04/03/08","07:05:15",21230.000,"cc",28276.098,6.00,6,0.100,17367.000,0.200,1840.000,0.300,930.000,0.500,889.000,1.000,204.000,5.000,0
"04/03/08","07:05:21",21304.000,"cc",28359.740,6.00,6,0.100,17386.000,0.200,1836.000,0.300,1026.000,0.500,874.000,1.000,182.000,5.000,0
"04/03/08","07:05:27",21289.000,"cc",28325.623,6.00,6,0.100,17502.000,0.200,1780.000,0.300,914.000,0.500,903.000,1.000,190.000,5.000,0
"04/03/08","07:05:33",21391.000,"cc",28337.709,6.00,6,0.100,17435.000,0.200,1829.000,0.300,1004.000,0.500,956.000,1.000,167.000,5.000,0
"04/03/08","07:05:39",21415.000,"cc",28293.887,6.00,6,0.100,17482.000,0.200,1794.000,0.300,1018.000,0.500,938.000,1.000,183.000,5.000,0
"04/03/08","07:05:45",21697.000,"cc",28294.656,6.00,6,0.100,17576.000,0.200,1921.000,0.300,1063.000,0.500,932.000,1.000,205.000,5.000,0
"04/03/08","07:05:51",21488.000,"cc",28373.121,6.00,6,0.100,17390.000,0.200,1907.000,0.300,1067.000,0.500,937.000,1.000,187.000,5.000,0
"04/03/08","07:05:57",21586.000,"cc",28362.670,6.00,6,0.100,17435.000,0.200,1936.000,0.300,996.000,0.500,1032.000,1.000,187.000,5.000,0
"04/03/08","07:06:03",21543.000,"cc",28384.744,6.00,6,0.100,17437.000,0.200,1866.000,0.300,997.000,0.500,1025.000,1.000,218.000,5.000,0
"04/03/08","07:06:09",21208.000,"cc",28309.773,6.00,6,0.100,17231.000,0.200,1849.000,0.300,1008.000,0.500,953.000,1.000,167.000,5.000,0
"04/03/08","07:06:15",21022.000,"cc",28211.072,6.00,6,0.100,17154.000,0.200,1868.000,0.300,928.000,0.500,920.000,1.000,152.000,5.000,0
"04/03/08","07:06:21",20978.000,"cc",28357.793,6.00,6,0.100,17117.000,0.200,1792.000,0.300,980.000,0.500,911.000,1.000,178.000,5.000,0
"04/03/08","07:06:27",21492.000,"cc",28286.227,6.00,6,0.100,17338.000,0.200,1888.000,0.300,1093.000,0.500,982.000,1.000,191.000,5.000,0
"04/03/08","07:06:33",21809.000,"cc",28343.924,6.00,6,0.100,17608.000,0.200,1966.000,0.300,1052.000,0.500,978.000,1.000,205.000,5.000,0
"04/03/08","07:06:39",21446.000,"cc",28203.697,6.00,6,0.100,17321.000,0.200,1885.000,0.300,1039.000,0.500,1002.000,1.000,199.000,5.000,0
"04/03/08","07:06:45",21059.000,"cc",28202.848,6.00,6,0.100,17133.000,0.200,1839.000,0.300,1010.000,0.500,904.000,1.000,173.000,5.000,0
"04/03/08","07:06:51",21418.000,"cc",28404.330,6.00,6,0.100,17248.000,0.200,1978.000,0.300,1055.000,0.500,959.000,1.000,178.000,5.000,0
"04/03/08","07:06:57",21104.000,"cc",28316.172,6.00,6,0.100,17197.000,0.200,1868.000,0.300,997.000,0.500,877.000,1.000,165.000,5.000,0
"04/03/08","07:07:03",21347.000,"cc",28407.711,6.00,6,0.100,17376.000,0.200,1869.000,0.300,994.000,0.500,926.000,1.000,182.000,5.000,0
"04/03/08","07:07:09",21380.000,"cc",28279.291,6.00,6,0.100,17399.000,0.200,1833.000,0.300,1069.000,0.500,901.000,1.000,178.000,5.000,0
"04/03/08","07:07:15",20838.000,"cc",28325.957,6.00,6,0.100,17017.000,0.200,1794.000,0.300,944.000,0.500,882.000,1.000,201.000,5.000,0
"04/03/08","07:07:21",20858.000,"cc",28354.354,6.00,6,0.100,17079.000,0.200,1819.000,0.300,943.000,0.500,863.000,1.000,154.000,5.000,0
"04/03/08","07:07:27",21134.000,"cc",28317.410,6.00,6,0.100,17230.000,0.200,1902.000,0.300,1007.000,0.500,826.000,1.000,169.000,5.000,0
"04/03/08","07:07:33",21315.000,"cc",28288.959,6.00,6,0.100,17327.000,0.200,1874.000,0.300,1001.000,0.500,941.000,1.000,172.000,5.000,0
"04/03/08","07:07:39",21131.000,"cc",28256.822,6.00,6,0.100,17164.000,0.200,1859.000,0.300,976.000,0.500,954.000,1.000,178.000,5.000,0
"04/03/08","07:07:45",21104.000,"cc",28393.453,6.00,6,0.100,17046.000,0.200,1957.000,0.300,999.000,0.500,926.000,1.000,176.000,5.000,0
"04/03/08","07:07:51",20909.000,"cc",28272.299,6.00,6,0.100,17112.000,0.200,1771.000,0.300,942.000,0.500,916.000,1.000,168.000,5.000,0
"04/03/08","07:07:57",21137.000,"cc",28346.695,6.00,6,0.100,17144.000,0.200,1897.000,0.300,985.000,0.500,944.000,1.000,167.000,5.000,0
"04/03/08","07:08:03",20753.000,"cc",28301.023,6.00,6,0.100,16895.000,0.200,1852.000,0.300,927.000,0.500,898.000,1.000,181.000,5.000,0
"04/03/08","07:08:09",21239.000,"cc",28323.584,6.00,6,0.100,17313.000,0.200,1880.000,0.300,967.000,0.500,901.000,1.000,178.000,5.000,0
"04/03/08","07:08:15",20882.000,"cc",28343.291,6.00,6,0.100,17086.000,0.200,1794.000,0.300,941.000,0.500,902.000,1.000,159.000,5.000,0
"04/03/08","07:08:21",21483.000,"cc",28316.879,6.00,6,0.100,17368.000,0.200,1928.000,0.300,995.000,0.500,975.000,1.000,217.000,5.000,0
"04/03/08","07:08:27",21092.000,"cc",28281.313,6.00,6,0.100,17179.000,0.200,1864.000,0.300,970.000,0.500,905.000,1.000,174.000,5.000,0
"04/03/08","07:08:33",20289.000,"cc",28247.254,6.00,6,0.100,16674.000,0.200,1743.000,0.300,874.000,0.500,811.000,1.000,187.000,5.000,0
"04/03/08","07:08:39",19957.000,"cc",28347.305,6.00,6,0.100,16436.000,0.200,1722.000,0.300,865.000,0.500,768.000,1.000,166.000,5.000,0
"04/03/08","07:08:45",20510.000,"cc",28284.273,6.00,6,0.100,16848.000,0.200,1776.000,0.300,928.000,0.500,807.000,1.000,151.000,5.000,0
"04/03/08","07:08:51",20544.000,"cc",28318.297,6.00,6,0.100,16702.000,0.200,1794.000,0.300,1025.000,0.500,844.000,1.000,179.000,5.000,0
"04/03/08","07:08:57",20873.000,"cc",28371.678,6.00,6,0.100,17080.000,0.200,1798.000,0.300,951.000,0.500,904.000,1.000,140.000,5.000,0
"04/03/08","07:09:03",20804.000,"cc",28348.729,6.00,6,0.100,16941.000,0.200,1748.000,0.300,989.000,0.500,945.000,1.000,181.000,5.000,0
"04/03/08","07:09:09",20840.000,"cc",28259.190,6.00,6,0.100,17019.000,0.200,1885.000,0.300,929.000,0.500,843.000,1.000,164.000,5.000,0
"04/03/08","07:09:15",20982.000,"cc",28325.926,6.00,6,0.100,17061.000,0.200,1900.000,0.300,1001.000,0.500,835.000,1.000,185.000,5.000,0
"04/03/08","07:09:21",20748.000,"cc",28475.397,6.00,6,0.100,16896.000,0.200,1861.000,0.300,949.000,0.500,878.000,1.000,164.000,5.000,0
"04/03/08","07:09:27",20435.000,"cc",28318.727,6.00,6,0.100,16611.000,0.200,1789.000,0.300,975.000,0.500,883.000,1.000,177.000,5.000,0
"04/03/08","07:09:33",20587.000,"cc",28209.898,6.00,6,0.100,16768.000,0.200,1826.000,0.300,953.000,0.500,888.000,1.000,152.000,5.000,0
"04/03/08","07:09:39",20660.000,"cc",28233.395,6.00,6,0.100,16862.000,0.200,1820.000,0.300,938.000,0.500,875.000,1.000,165.000,5.000,0
"04/03/08","07:09:45",20629.000,"cc",28292.145,6.00,6,0.100,16962.000,0.200,1777.000,0.300,903.000,0.500,829.000,1.000,158.000,5.000,0
"04/03/08","07:09:51",21159.000,"cc",28380.848,6.00,6,0.100,17235.000,0.200,1859.000,0.300,944.000,0.500,945.000,1.000,176.000,5.000,0
"04/03/08","07:09:57",20749.000,"cc",28340.553,6.00,6,0.100,16844.000,0.200,1837.000,0.300,984.000,0.500,916.000,1.000,168.000,5.000,0
"04/03/08","07:10:03",20526.000,"cc",28375.965,6.00,6,0.100,16679.000,0.200,1797.000,0.300,943.000,0.500,893.000,1.000,214.000,5.000,0
"04/03/08","07:10:09",21124.000,"cc",28377.402,6.00,6,0.100,17233.000,0.200,1834.000,0.300,1002.000,0.500,907.000,1.000,148.000,5.000,0
"04/03/08","07:10:15",20770.000,"cc",28165.318,6.00,6,0.100,16936.000,0.200,1820.000,0.300,963.000,0.500,885.000,1.000,166.000,5.000,0
"04/03/08","07:10:21",20815.000,"cc",28347.223,6.00,6,0.100,16986.000,0.200,1871.000,0.300,996.000,0.500,799.000,1.000,163.000,5.000,0
"04/03/08","07:10:27",20634.000,"cc",28285.902,6.00,6,0.100,16790.000,0.200,1802.000,0.300,968.000,0.500,903.000,1.000,171.000,5.000,0
"04/03/08","07:10:33",20774.000,"cc",28254.723,6.00,6,0.100,17073.000,0.200,1783.000,0.300,923.000,0.500,843.000,1.000,152.000,5.000,0
"04/03/08","07:10:39",20617.000,"cc",28294.754,6.00,6,0.100,16797.000,0.200,1875.000,0.300,932.000,0.500,866.000,1.000,147.000,5.000,0
"04/03/08","07:10:45",20632.000,"cc",28339.287,6.00,6,0.100,16932.000,0.200,1769.000,0.300,952.000,0.500,854.000,1.000,125.000,5.000,0
"04/03/08","07:10:51",20911.000,"cc",28318.057,6.00,6,0.100,17215.000,0.200,1755.000,0.300,934.000,0.500,854.000,1.000,153.000,5.000,0
"04/03/08","07:10:57",20900.000,"cc",28323.701,6.00,6,0.100,17078.000,0.200,1874.000,0.300,922.000,0.500,882.000,1.000,144.000,5.000,0
"04/03/08","07:11:03",21331.000,"cc",28331.777,6.00,6,0.100,17409.000,0.200,1938.000,0.300,973.000,0.500,857.000,1.000,154.000,5.000,0
"04/03/08","07:11:09",21150.000,"cc",28313.115,6.00,6,0.100,17214.000,0.200,1911.000,0.300,1044.000,0.500,843.000,1.000,138.000,5.000,0
"04/03/08","07:11:15",20906.000,"cc",28309.736,6.00,6,0.100,17043.000,0.200,1903.000,0.300,968.000,0.500,846.000,1.000,146.000,5.000,0
"04/03/08","07:11:21",20825.000,"cc",28253.502,6.00,6,0.100,16921.000,0.200,1885.000,0.300,972.000,0.500,890.000,1.000,157.000,5.000,0
"04/03/08","07:11:27",20949.000,"cc",28278.316,6.00,6,0.100,17136.000,0.200,1837.000,0.300,967.000,0.500,871.000,1.000,138.000,5.000,0
"04/03/08","07:11:33",20905.000,"cc",28369.356,6.00,6,0.100,17039.000,0.200,1915.000,0.300,967.000,0.500,843.000,1.000,141.000,5.000,0
"04/03/08","07:11:39",21305.000,"cc",28358.924,6.00,6,0.100,17337.000,0.200,1912.000,0.300,1023.000,0.500,870.000,1.000,163.000,5.000,0
"04/03/08","07:11:45",20928.000,"cc",28283.988,6.00,6,0.100,17003.000,0.200,1919.000,0.300,1004.000,0.500,864.000,1.000,138.000,5.000,0
"04/03/08","07:11:51",20781.000,"cc",28234.166,6.00,6,0.100,17092.000,0.200,1816.000,0.300,927.000,0.500,817.000,1.000,129.000,5.000,0
"04/03/08","07:11:57",21162.000,"cc",28345.135,6.00,6,0.100,17301.000,0.200,1854.000,0.300,988.000,0.500,849.000,1.000,170.000,5.000,0
"04/03/08","07:12:03",20864.000,"cc",28289.809,6.00,6,0.100,16959.000,0.200,1888.000,0.300,991.000,0.500,876.000,1.000,150.000,5.000,0
"04/03/08","07:12:09",20985.000,"cc",28361.484,6.00,6,0.100,17072.000,0.200,1905.000,0.300,980.000,0.500,880.000,1.000,148.000,5.000,0
"04/03/08","07:12:15",20948.000,"cc",28302.266,6.00,6,0.100,17240.000,0.200,1839.000,0.300,934.000,0.500,798.000,1.000,137.000,5.000,0
"04/03/08","07:12:21",20625.000,"cc",28287.777,6.00,6,0.100,16866.000,0.200,1845.000,0.300,928.000,0.500,831.000,1.000,155.000,5.000,0
"04/03/08","07:12:27",20169.000,"cc",28361.781,6.00,6,0.100,16449.000,0.200,1831.000,0.300,894.000,0.500,841.000,1.000,154.000,5.000,0
"04/03/08","07:12:33",20411.000,"cc",28353.613,6.00,6,0.100,16746.000,0.200,1757.000,0.300,895.000,0.500,859.000,1.000,154.000,5.000,0
"04/03/08","07:12:39",20749.000,"cc",28224.940,6.00,6,0.100,16894.000,0.200,1898.000,0.300,979.000,0.500,827.000,1.000,151.000,5.000,0
"04/03/08","07:12:45",21139.000,"cc",28289.467,6.00,6,0.100,17200.000,0.200,1864.000,0.300,1051.000,0.500,880.000,1.000,144.000,5.000,0
"04/03/08","07:12:51",20747.000,"cc",28436.621,6.00,6,0.100,16881.000,0.200,1873.000,0.300,951.000,0.500,899.000,1.000,143.000,5.000,0
"04/03/08","07:12:57",20565.000,"cc",28324.481,6.00,6,0.100,16825.000,0.200,1823.000,0.300,990.000,0.500,790.000,1.000,137.000,5.000,0
"04/03/08","07:13:03",20480.000,"cc",28260.338,6.00,6,0.100,16789.000,0.200,1776.000,0.300,912.000,0.500,877.000,1.000,126.000,5.000,0
"04/03/08","07:13:09",20662.000,"cc",28318.494,6.00,6,0.100,16929.000,0.200,1881.000,0.300,931.000,0.500,792.000,1.000,129.000,5.000,0
"04/03/08","07:13:15",20689.000,"cc",28334.809,6.00,6,0.100,16932.000,0.200,1841.000,0.300,937.000,0.500,841.000,1.000,138.000,5.000,0
"04/03/08","07:13:21",20566.000,"cc",28330.752,6.00,6,0.100,16875.000,0.200,1782.000,0.300,972.000,0.500,789.000,1.000,148.000,5.000,0
"04/03/08","07:13:27",20815.000,"cc",28261.092,6.00,6,0.100,16978.000,0.200,1842.000,0.300,1010.000,0.500,850.000,1.000,135.000,5.000,0
"04/03/08","07:13:33",20577.000,"cc",28228.473,6.00,6,0.100,16850.000,0.200,1836.000,0.300,915.000,0.500,856.000,1.000,120.000,5.000,0
"04/03/08","07:13:39",20621.000,"cc",28399.779,6.00,6,0.100,16953.000,0.200,1780.000,0.300,892.000,0.500,872.000,1.000,124.000,5.000,0
"04/03/08","07:13:45",20509.000,"cc",28344.799,6.00,6,0.100,16661.000,0.200,1839.000,0.300,982.000,0.500,882.000,1.000,145.000,5.000,0
"04/03/08","07:13:51",20239.000,"cc",28308.793,6.00,6,0.100,16554.000,0.200,1806.000,0.300,911.000,0.500,829.000,1.000,139.000,5.000,0
"04/03/08","07:13:57",20068.000,"cc",28325.844,6.00,6,0.100,16342.000,0.200,1791.000,0.300,950.000,0.500,859.000,1.000,126.000,5.000,0
"04/03/08","07:14:03",20291.000,"cc",28326.143,6.00,6,0.100,16643.000,0.200,1842.000,0.300,910.000,0.500,768.000,1.000,128.000,5.000,0
"04/03/08","07:14:09",20440.000,"cc",28283.393,6.00,6,0.100,16673.000,0.200,1895.000,0.300,969.000,0.500,787.000,1.000,116.000,5.000,0
"04/03/08","07:14:15",20806.000,"cc",28405.291,6.00,6,0.100,16790.000,0.200,1836.000,0.300,1096.000,0.500,922.000,1.000,162.000,5.000,0
"04/03/08","07:14:21",19977.000,"cc",28288.662,6.00,6,0.100,16187.000,0.200,1786.000,0.300,996.000,0.500,868.000,1.000,140.000,5.000,0
"04/03/08","07:14:27",19747.000,"cc",28289.311,6.00,6,0.100,16235.000,0.200,1682.000,0.300,903.000,0.500,764.000,1.000,163.000,5.000,0
"04/03/08","07:14:33",20318.000,"cc",28280.729,6.00,6,0.100,16632.000,0.200,1795.000,0.300,918.000,0.500,848.000,1.000,125.000,5.000,0
"04/03/08","07:14:39",20489.000,"cc",28332.699,6.00,6,0.100,16759.000,0.200,1823.000,0.300,955.000,0.500,806.000,1.000,146.000,5.000,0
"04/03/08","07:14:45",20327.000,"cc",28276.371,6.00,6,0.100,16524.000,0.200,1844.000,0.300,923.000,0.500,884.000,1.000,152.000,5.000,0
"04/03/08","07:14:51",20375.000,"cc",28309.869,6.00,6,0.100,16678.000,0.200,1673.000,0.300,988.000,0.500,890.000,1.000,146.000,5.000,0
"04/03/08","07:14:57",20200.000,"cc",28397.928,6.00,6,0.100,16613.000,0.200,1760.000,0.300,889.000,0.500,806.000,1.000,132.000,5.000,0
"04/03/08","07:15:03",20293.000,"cc",28315.152,6.00,6,0.100,16590.000,0.200,1752.000,0.300,993.000,0.500,809.000,1.000,149.000,5.000,0
"04/03/08","07:15:09",20130.000,"cc",28363.588,6.00,6,0.100,16477.000,0.200,1758.000,0.300,929.000,0.500,840.000,1.000,126.000,5.000,0
"04/03/08","07:15:15",20308.000,"cc",28272.500,6.00,6,0.100,16608.000,0.200,1797.000,0.300,918.000,0.500,851.000,1.000,134.000,5.000,0
"04/03/08","07:15:21",20762.000,"cc",28377.039,6.00,6,0.100,17080.000,0.200,1830.000,0.300,948.000,0.500,745.000,1.000,159.000,5.000,0
"04/03/08","07:15:27",20519.000,"cc",28333.904,6.00,6,0.100,16771.000,0.200,1848.000,0.300,964.000,0.500,811.000,1.000,125.000,5.000,0
"04/03/08","07:15:33",20462.000,"cc",28256.953,6.00,6,0.100,16684.000,0.200,1773.000,0.300,1004.000,0.500,872.000,1.000,129.000,5.000,0
"04/03/08","07:15:39",20558.000,"cc",28324.580,6.00,6,0.100,16770.000,0.200,1779.000,0.300,939.000,0.500,912.000,1.000,158.000,5.000,0
"04/03/08","07:15:45",20524.000,"cc",28227.498,6.00,6,0.100,16730.000,0.200,1809.000,0.300,1007.000,0.500,821.000,1.000,157.000,5.000,0
"04/03/08","07:15:51",20709.000,"cc",28318.119,6.00,6,0.100,17014.000,0.200,1806.000,0.300,963.000,0.500,798.000,1.000,128.000,5.000,0
"04/03/08","07:15:57",21093.000,"cc",28352.803,6.00,6,0.100,17208.000,0.200,1929.000,0.300,962.000,0.500,869.000,1.000,125.000,5.000,0
"04/03/08","07:16:03",20282.000,"cc",28309.715,6.00,6,0.100,16635.000,0.200,1791.000,0.300,958.000,0.500,768.000,1.000,130.000,5.000,0
"04/03/08","07:16:09",20942.000,"cc",28361.049,6.00,6,0.100,17060.000,0.200,1833.000,0.300,1043.000,0.500,878.000,1.000,128.000,5.000,0
"04/03/08","07:16:15",20278.000,"cc",28361.356,6.00,6,0.100,16523.000,0.200,1789.000,0.300,1006.000,0.500,832.000,1.000,128.000,5.000,0
"04/03/08","07:16:21",20522.000,"cc",28240.484,6.00,6,0.100,17004.000,0.200,1727.000,0.300,924.000,0.500,765.000,1.000,102.000,5.000,0
"04/03/08","07:16:27",20497.000,"cc",28284.148,6.00,6,0.100,16863.000,0.200,1843.000,0.300,906.000,0.500,746.000,1.000,139.000,5.000,0
"04/03/08","07:16:33",20693.000,"cc",28344.871,6.00,6,0.100,16832.000,0.200,1870.000,0.300,959.000,0.500,908.000,1.000,124.000,5.000,0